• In Uzbekistan
  • List of Countries
  • For 7 days
  • Water Temperature
  • Satellite Maps
  • Weather Map
  • Weather Widgets
  • user-avatar
    Login

    Hourly Weather Privіlne (Radyans'ke)

    Today, 16 December, Saturday

    Time Temperature Precipitation Wind Pressure Humidity
    00:00 +6°C° 0 mm 4 mps 752 mmHg 93%
    01:00 +6°C° 0 mm 4 mps 752 mmHg 94%
    02:00 +5°C° 0 mm 4 mps 752 mmHg 95%
    03:00 +6°C° 0 mm 4 mps 752 mmHg 94%
    04:00 +6°C° 0 mm 5 mps 752 mmHg 94%
    05:00 +5°C° 0 mm 6 mps 751 mmHg 93%
    06:00 +5°C° 0 mm 6 mps 751 mmHg 91%
    07:00 +7°C° 0 mm 6 mps 751 mmHg 90%
    08:00 +7°C° 0 mm 6 mps 751 mmHg 88%
    09:00 +6°C° 0.3 mm 7 mps 751 mmHg 84%
    10:00 +8°C° 0.3 mm 7 mps 751 mmHg 80%
    11:00 +9°C° 0.3 mm 8 mps 750 mmHg 76%
    12:00 +10°C° 0 mm 8 mps 750 mmHg 71%
    13:00 +11°C° 0 mm 8 mps 750 mmHg 65%
    14:00 +11°C° 0 mm 8 mps 749 mmHg 59%
    15:00 +11°C° 0 mm 8 mps 749 mmHg 64%
    16:00 +10°C° 0 mm 8 mps 749 mmHg 68%
    17:00 +10°C° 0 mm 8 mps 750 mmHg 72%
    18:00 +9°C° 0 mm 8 mps 750 mmHg 75%
    19:00 +9°C° 0 mm 8 mps 750 mmHg 78%
    20:00 +9°C° 0 mm 7 mps 750 mmHg 81%
    21:00 +9°C° 0 mm 7 mps 750 mmHg 81%
    22:00 +9°C° 0 mm 7 mps 750 mmHg 81%
    23:00 +9°C° 0 mm 7 mps 750 mmHg 82%

    Tomorrow, 17 December, Sunday

    Time Temperature Precipitation Wind Pressure Humidity
    00:00 +9°C° 0 mm 7 mps 750 mmHg 80%
    01:00 +9°C° 0 mm 7 mps 750 mmHg 79%
    02:00 +10°C° 0 mm 7 mps 751 mmHg 77%
    03:00 +9°C° 0 mm 6 mps 751 mmHg 78%
    04:00 +9°C° 0 mm 6 mps 751 mmHg 78%
    05:00 +9°C° 0 mm 6 mps 751 mmHg 79%
    06:00 +9°C° 0.1 mm 6 mps 751 mmHg 80%
    07:00 +9°C° 0.1 mm 6 mps 751 mmHg 80%
    08:00 +9°C° 0.1 mm 6 mps 751 mmHg 80%
    09:00 +9°C° 0.8 mm 6 mps 751 mmHg 82%
    10:00 +9°C° 0.8 mm 6 mps 751 mmHg 84%
    11:00 +9°C° 0.8 mm 6 mps 751 mmHg 85%
    12:00 +10°C° 0.9 mm 6 mps 751 mmHg 85%
    13:00 +10°C° 0.9 mm 6 mps 751 mmHg 84%
    14:00 +10°C° 0.9 mm 5 mps 751 mmHg 83%
    15:00 +10°C° 0.4 mm 6 mps 751 mmHg 83%
    16:00 +9°C° 0.4 mm 6 mps 750 mmHg 84%
    17:00 +9°C° 0.4 mm 6 mps 750 mmHg 84%
    18:00 +9°C° 0.4 mm 7 mps 750 mmHg 83%
    19:00 +8°C° 0.4 mm 7 mps 750 mmHg 81%
    20:00 +7°C° 0.4 mm 8 mps 750 mmHg 80%
    21:00 +8°C° 0.5 mm 7 mps 750 mmHg 82%
    22:00 +8°C° 0.5 mm 7 mps 749 mmHg 83%
    23:00 +8°C° 0.5 mm 7 mps 749 mmHg 85%

    Day after tomorrow, 18 December, Monday

    Time Temperature Precipitation Wind Pressure Humidity
    00:00 +8°C° 0.7 mm 7 mps 749 mmHg 87%
    01:00 +8°C° 0.7 mm 7 mps 749 mmHg 89%
    02:00 +9°C° 0.7 mm 6 mps 749 mmHg 90%
    03:00 +8°C° 1.1 mm 6 mps 749 mmHg 91%
    04:00 +8°C° 1.1 mm 5 mps 749 mmHg 91%
    05:00 +7°C° 1.1 mm 5 mps 749 mmHg 91%
    06:00 +7°C° 0.7 mm 5 mps 749 mmHg 91%
    07:00 +6°C° 0.7 mm 5 mps 749 mmHg 90%
    08:00 +6°C° 0.7 mm 5 mps 749 mmHg 89%
    09:00 +5°C° 0.1 mm 5 mps 750 mmHg 86%
    10:00 +3°C° 0.1 mm 5 mps 750 mmHg 83%
    11:00 +3°C° 0.1 mm 5 mps 751 mmHg 80%
    12:00 +3°C° 0 mm 6 mps 751 mmHg 78%
    13:00 +2°C° 0 mm 6 mps 752 mmHg 76%
    14:00 +2°C° 0 mm 6 mps 752 mmHg 75%
    15:00 +2°C° 0 mm 6 mps 753 mmHg 75%
    16:00 +1°C° 0 mm 6 mps 753 mmHg 75%
    17:00 +1°C° 0 mm 6 mps 754 mmHg 76%
    18:00 +1°C° 0 mm 5 mps 754 mmHg 76%
    19:00 +1°C° 0 mm 5 mps 755 mmHg 76%
    20:00 0°C° 0 mm 5 mps 755 mmHg 76%
    21:00 0°C° 0 mm 5 mps 756 mmHg 77%
    22:00 0°C° 0 mm 5 mps 756 mmHg 77%
    23:00 0°C° 0 mm 5 mps 756 mmHg 78%

    19 December, Tuesday

    Time Temperature Precipitation Wind Pressure Humidity
    00:00 -1°C° 0 mm 4 mps 757 mmHg 79%
    01:00 -1°C° 0 mm 4 mps 757 mmHg 80%
    02:00 -1°C° 0 mm 4 mps 757 mmHg 81%
    03:00 -2°C° 0 mm 4 mps 757 mmHg 82%
    04:00 -2°C° 0 mm 4 mps 758 mmHg 83%
    05:00 -1°C° 0 mm 3 mps 758 mmHg 83%
    06:00 -1°C° 0 mm 3 mps 758 mmHg 83%
    07:00 -2°C° 0 mm 3 mps 759 mmHg 83%
    08:00 -2°C° 0 mm 3 mps 759 mmHg 83%
    09:00 -1°C° 0 mm 3 mps 759 mmHg 80%
    10:00 -1°C° 0 mm 3 mps 760 mmHg 77%
    11:00 0°C° 0 mm 3 mps 760 mmHg 74%
    12:00 -1°C° 0 mm 4 mps 760 mmHg 73%
    13:00 -1°C° 0 mm 4 mps 760 mmHg 72%
    14:00 -1°C° 0 mm 4 mps 760 mmHg 71%
    15:00 -1°C° 0 mm 4 mps 761 mmHg 72%
    16:00 -2°C° 0 mm 4 mps 761 mmHg 74%
    17:00 -2°C° 0 mm 4 mps 761 mmHg 76%
    18:00 -2°C° 0 mm 3 mps 761 mmHg 76%
    19:00 -2°C° 0 mm 3 mps 762 mmHg 76%
    20:00 -2°C° 0 mm 3 mps 762 mmHg 75%
    21:00 -2°C° 0 mm 3 mps 762 mmHg 75%
    22:00 -2°C° 0 mm 3 mps 762 mmHg 74%
    23:00 -2°C° 0 mm 3 mps 763 mmHg 73%

    20 December, Wednesday

    Time Temperature Precipitation Wind Pressure Humidity
    00:00 -2°C° 0 mm 2 mps 763 mmHg 74%
    01:00 -2°C° 0 mm 2 mps 763 mmHg 75%
    02:00 -3°C° 0 mm 2 mps 763 mmHg 75%
    03:00 -3°C° 0 mm 2 mps 763 mmHg 75%
    04:00 -3°C° 0 mm 2 mps 763 mmHg 76%
    05:00 -3°C° 0 mm 2 mps 763 mmHg 76%
    06:00 -3°C° 0 mm 2 mps 763 mmHg 75%
    07:00 -3°C° 0 mm 2 mps 763 mmHg 73%
    08:00 -3°C° 0 mm 2 mps 763 mmHg 72%
    09:00 -2°C° 0 mm 2 mps 763 mmHg 70%
    10:00 -2°C° 0 mm 2 mps 763 mmHg 67%
    11:00 -2°C° 0 mm 2 mps 763 mmHg 64%
    12:00 -2°C° 0 mm 2 mps 763 mmHg 63%
    13:00 -2°C° 0 mm 2 mps 763 mmHg 63%
    14:00 -1°C° 0 mm 2 mps 762 mmHg 62%
    15:00 -2°C° 0 mm 2 mps 762 mmHg 63%
    16:00 0°C° 0 mm 1 mps 762 mmHg 64%
    17:00 0°C° 0 mm 1 mps 762 mmHg 65%
    18:00 0°C° 0 mm 1 mps 762 mmHg 64%
    19:00 -1°C° 0 mm 0 mps 763 mmHg 64%
    20:00 -1°C° 0 mm 0 mps 763 mmHg 63%
    21:00 -1°C° 0 mm 0 mps 763 mmHg 63%
    22:00 -1°C° 0 mm 0 mps 763 mmHg 64%
    23:00 -1°C° 0 mm 0 mps 763 mmHg 64%

    21 December, Thursday

    Time Temperature Precipitation Wind Pressure Humidity
    00:00 -1°C° 0 mm 0 mps 762 mmHg 64%
    01:00 -1°C° 0 mm 0 mps 762 mmHg 63%
    02:00 -1°C° 0 mm 0 mps 762 mmHg 63%
    03:00 -1°C° 0 mm 1 mps 762 mmHg 63%
    04:00 -1°C° 0 mm 1 mps 761 mmHg 63%
    05:00 -1°C° 0 mm 1 mps 761 mmHg 64%
    06:00 -1°C° 0 mm 1 mps 761 mmHg 63%
    07:00 -1°C° 0 mm 1 mps 761 mmHg 62%
    08:00 -1°C° 0 mm 1 mps 761 mmHg 62%
    09:00 0°C° 0 mm 1 mps 761 mmHg 59%
    10:00 0°C° 0 mm 1 mps 761 mmHg 57%
    11:00 -2°C° 0 mm 2 mps 761 mmHg 55%
    12:00 -2°C° 0 mm 2 mps 760 mmHg 54%
    13:00 -1°C° 0 mm 2 mps 760 mmHg 54%
    14:00 -1°C° 0 mm 2 mps 760 mmHg 53%
    15:00 -2°C° 0 mm 2 mps 760 mmHg 57%
    16:00 -2°C° 0 mm 2 mps 759 mmHg 60%
    17:00 -3°C° 0 mm 2 mps 759 mmHg 63%
    18:00 -3°C° 0 mm 2 mps 759 mmHg 64%
    19:00 -3°C° 0 mm 2 mps 759 mmHg 64%
    20:00 -3°C° 0 mm 2 mps 759 mmHg 65%
    21:00 -3°C° 0 mm 2 mps 759 mmHg 65%
    22:00 -3°C° 0 mm 2 mps 759 mmHg 66%
    23:00 -3°C° 0 mm 2 mps 758 mmHg 66%
    Show more

    XHprof extension not loaded